Time,TemperatureF,DewpointF,PressureIn,WindDirection,WindDirectionDegrees,WindSpeedMPH,WindSpeedGustMPH,Humidity,HourlyPrecipIn,Conditions,Clouds,dailyrainin,SolarRadiationWatts/m^2,SoftwareType,DateUTC
2013-10-07 00:05:00,60.5,59.0,30.10,SSE,165,0.0,-999.0,96,-99.99,,,0.00,0,weatherlink.com 1.10,2013-10-07 04:05:00,
2013-10-07 00:20:00,60.6,60.0,30.10,East,101,0.0,-999.0,96,-99.99,,,0.00,0,weatherlink.com 1.10,2013-10-07 04:20:00,
2013-10-07 00:35:00,60.8,60.0,30.09,South,175,0.0,-999.0,96,-99.99,,,0.00,0,weatherlink.com 1.10,2013-10-07 04:35:00,
2013-10-07 00:50:00,61.0,60.0,30.09,ESE,123,0.0,-999.0,96,-99.99,,,0.00,0,weatherlink.com 1.10,2013-10-07 04:50:00,
2013-10-07 01:05:00,61.2,60.0,30.09,SSE,161,0.0,-999.0,97,-99.99,,,0.00,0,weatherlink.com 1.10,2013-10-07 05:05:00,
2013-10-07 01:20:00,61.4,61.0,30.08,SSE,159,4.0,-999.0,97,-99.99,,,0.00,0,weatherlink.com 1.10,2013-10-07 05:20:00,
2013-10-07 01:35:00,61.5,61.0,30.08,SSE,163,0.0,-999.0,97,-99.99,,,0.00,0,weatherlink.com 1.10,2013-10-07 05:35:00,
2013-10-07 01:50:00,61.7,61.0,30.08,South,178,2.0,-999.0,97,-99.99,,,0.00,0,weatherlink.com 1.10,2013-10-07 05:50:00,
2013-10-07 02:05:00,61.8,61.0,30.08,SSE,167,0.0,-999.0,97,-99.99,,,0.00,0,weatherlink.com 1.10,2013-10-07 06:05:00,
2013-10-07 02:20:00,62.0,61.0,30.07,South,176,0.0,-999.0,97,-99.99,,,0.00,0,weatherlink.com 1.10,2013-10-07 06:20:00,
2013-10-07 02:35:00,62.2,61.0,30.07,SSE,166,0.0,-999.0,97,-99.99,,,0.00,0,weatherlink.com 1.10,2013-10-07 06:35:00,
2013-10-07 02:50:00,62.5,62.0,30.06,SSE,150,0.0,-999.0,97,-99.99,,,0.00,0,weatherlink.com 1.10,2013-10-07 06:50:00,
2013-10-07 03:05:00,62.9,62.0,30.06,SSE,153,0.0,-999.0,97,-99.99,,,0.00,0,weatherlink.com 1.10,2013-10-07 07:05:00,
2013-10-07 03:20:00,63.2,62.0,30.05,SSE,161,0.0,-999.0,97,-99.99,,,0.00,0,weatherlink.com 1.10,2013-10-07 07:20:00,
2013-10-07 03:35:00,63.3,63.0,30.05,South,169,0.0,-999.0,97,-99.99,,,0.00,0,weatherlink.com 1.10,2013-10-07 07:35:00,
2013-10-07 03:50:00,63.4,63.0,30.04,South,171,0.0,-999.0,98,-99.99,,,0.00,0,weatherlink.com 1.10,2013-10-07 07:50:00,
2013-10-07 04:05:00,63.6,63.0,30.04,South,169,0.0,-999.0,98,-99.99,,,0.00,0,weatherlink.com 1.10,2013-10-07 08:05:00,
2013-10-07 04:20:00,63.9,63.0,30.04,SSE,161,4.0,-999.0,98,-99.99,,,0.00,0,weatherlink.com 1.10,2013-10-07 08:20:00,
2013-10-07 04:35:00,63.9,63.0,30.04,South,173,0.0,-999.0,98,-99.99,,,0.00,0,weatherlink.com 1.10,2013-10-07 08:35:00,
2013-10-07 04:50:00,63.9,63.0,30.03,South,182,2.0,-999.0,98,-99.99,,,0.00,0,weatherlink.com 1.10,2013-10-07 08:50:00,
2013-10-07 05:05:00,64.1,64.0,30.03,South,174,8.0,-999.0,98,-99.99,,,0.00,0,weatherlink.com 1.10,2013-10-07 09:05:00,
2013-10-07 05:20:00,64.1,64.0,30.03,SE,126,2.0,-999.0,98,-99.99,,,0.00,0,weatherlink.com 1.10,2013-10-07 09:20:00,
2013-10-07 05:35:00,64.1,64.0,30.03,South,173,0.0,-999.0,98,-99.99,,,0.00,0,weatherlink.com 1.10,2013-10-07 09:35:00,
2013-10-07 05:50:00,64.1,64.0,30.03,SE,145,0.0,-999.0,98,-99.99,,,0.00,0,weatherlink.com 1.10,2013-10-07 09:50:00,
2013-10-07 06:05:00,64.2,64.0,30.03,SSE,163,1.0,-999.0,98,-99.99,,,0.00,0,weatherlink.com 1.10,2013-10-07 10:05:00,
2013-10-07 06:20:00,64.3,64.0,30.02,South,178,0.0,-999.0,98,-99.99,,,0.00,0,weatherlink.com 1.10,2013-10-07 10:20:00,
2013-10-07 06:35:00,64.4,64.0,30.02,SSE,164,0.0,-999.0,98,-99.99,,,0.00,0,weatherlink.com 1.10,2013-10-07 10:35:00,
2013-10-07 06:50:00,64.4,64.0,30.02,SSE,164,0.0,-999.0,98,-99.99,,,0.00,0,weatherlink.com 1.10,2013-10-07 10:50:00,
2013-10-07 07:05:00,64.6,64.0,30.02,SSE,163,0.0,-999.0,98,-99.99,,,0.00,0,weatherlink.com 1.10,2013-10-07 11:05:00,
2013-10-07 07:20:00,65.4,65.0,30.02,SE,139,0.0,-999.0,99,-99.99,,,0.00,19,weatherlink.com 1.10,2013-10-07 11:20:00,
2013-10-07 07:35:00,66.6,66.0,30.02,SSE,153,0.0,-999.0,99,-99.99,,,0.00,11,weatherlink.com 1.10,2013-10-07 11:35:00,
2013-10-07 07:50:00,67.7,67.0,30.02,SSE,162,7.0,-999.0,99,-99.99,,,0.00,37,weatherlink.com 1.10,2013-10-07 11:50:00,
2013-10-07 08:06:00,68.3,68.0,30.01,East,88,2.0,-999.0,99,-99.99,,,0.00,51,weatherlink.com 1.10,2013-10-07 12:06:00,
2013-10-07 08:21:00,68.5,68.0,30.01,SSE,148,0.0,-999.0,99,-99.99,,,0.00,65,weatherlink.com 1.10,2013-10-07 12:21:00,
2013-10-07 08:36:00,68.8,69.0,30.01,South,171,0.0,-999.0,99,-99.99,,,0.00,125,weatherlink.com 1.10,2013-10-07 12:36:00,
2013-10-07 08:51:00,69.0,69.0,30.01,SE,145,4.0,-999.0,99,-99.99,,,0.00,35,weatherlink.com 1.10,2013-10-07 12:51:00,
2013-10-07 09:06:00,69.0,69.0,30.01,SSE,165,8.0,-999.0,98,-99.99,,,0.00,39,weatherlink.com 1.10,2013-10-07 13:06:00,
2013-10-07 09:21:00,69.0,69.0,30.00,SE,132,0.0,-999.0,98,-99.99,,,0.00,84,weatherlink.com 1.10,2013-10-07 13:21:00,
2013-10-07 09:36:00,69.0,69.0,29.99,SE,128,2.0,-999.0,98,-99.99,,,0.00,98,weatherlink.com 1.10,2013-10-07 13:36:00,
2013-10-07 09:51:00,69.4,69.0,29.99,SE,144,4.0,-999.0,98,-99.99,,,0.00,149,weatherlink.com 1.10,2013-10-07 13:51:00,
2013-10-07 10:06:00,69.8,69.0,29.99,South,190,7.0,-999.0,98,-99.99,,,0.00,121,weatherlink.com 1.10,2013-10-07 14:06:00,
2013-10-07 10:21:00,69.9,69.0,29.99,SSE,160,0.0,-999.0,98,-99.99,,,0.00,54,weatherlink.com 1.10,2013-10-07 14:21:00,
2013-10-07 10:36:00,70.0,69.0,29.98,ESE,117,0.0,-999.0,98,-99.99,,,0.00,90,weatherlink.com 1.10,2013-10-07 14:36:00,
2013-10-07 10:51:00,70.3,70.0,29.98,SSE,156,4.0,-999.0,98,-99.99,,,0.00,113,weatherlink.com 1.10,2013-10-07 14:51:00,
2013-10-07 11:06:00,70.7,70.0,29.97,South,177,10.0,-999.0,98,-99.99,,,0.00,197,weatherlink.com 1.10,2013-10-07 15:06:00,
2013-10-07 11:21:00,70.8,70.0,29.97,SSE,153,4.0,-999.0,98,-99.99,,,0.00,35,weatherlink.com 1.10,2013-10-07 15:21:00,
2013-10-07 11:36:00,70.3,69.0,29.96,SSE,148,7.0,-999.0,97,-99.99,,,0.00,323,weatherlink.com 1.10,2013-10-07 15:36:00,
2013-10-07 11:51:00,70.2,69.0,29.95,SW,218,4.0,-999.0,96,-99.99,,,0.00,304,weatherlink.com 1.10,2013-10-07 15:51:00,
2013-10-07 12:06:00,71.2,70.0,29.95,SSW,195,4.0,-999.0,95,-99.99,,,0.00,285,weatherlink.com 1.10,2013-10-07 16:06:00,
2013-10-07 12:21:00,72.3,70.0,29.94,ESE,123,1.0,-999.0,93,-99.99,,,0.00,144,weatherlink.com 1.10,2013-10-07 16:21:00,
2013-10-07 12:36:00,72.6,70.0,29.93,East,88,1.0,-999.0,92,-99.99,,,0.00,248,weatherlink.com 1.10,2013-10-07 16:36:00,
2013-10-07 12:51:00,72.9,71.0,29.92,SSE,159,2.0,-999.0,92,-99.99,,,0.00,353,weatherlink.com 1.10,2013-10-07 16:51:00,
2013-10-07 13:06:00,73.3,71.0,29.91,SSE,155,0.0,-999.0,91,-99.99,,,0.00,596,weatherlink.com 1.10,2013-10-07 17:06:00,
2013-10-07 13:21:00,73.8,70.0,29.91,South,186,5.0,-999.0,88,-99.99,,,0.00,299,weatherlink.com 1.10,2013-10-07 17:21:00,
2013-10-07 13:36:00,73.9,70.0,29.90,SSE,157,0.0,-999.0,87,-99.99,,,0.00,353,weatherlink.com 1.10,2013-10-07 17:36:00,
2013-10-07 13:51:00,73.5,70.0,29.90,SE,133,8.0,-999.0,88,-99.99,,,0.00,183,weatherlink.com 1.10,2013-10-07 17:51:00,
2013-10-07 14:06:00,73.2,70.0,29.89,East,89,4.0,-999.0,90,-99.99,,,0.00,199,weatherlink.com 1.10,2013-10-07 18:06:00,
2013-10-07 14:21:00,73.1,70.0,29.88,SSE,156,9.0,-999.0,90,-99.99,,,0.00,95,weatherlink.com 1.10,2013-10-07 18:21:00,
2013-10-07 14:37:00,72.5,70.0,29.88,SE,134,1.0,-999.0,92,-99.99,,,0.00,225,weatherlink.com 1.10,2013-10-07 18:37:00,
2013-10-07 14:51:00,72.6,70.0,29.88,South,185,2.0,-999.0,92,-99.99,,,0.00,77,weatherlink.com 1.10,2013-10-07 18:51:00,
2013-10-07 15:06:00,72.8,70.0,29.87,South,184,2.0,-999.0,92,-99.99,,,0.00,62,weatherlink.com 1.10,2013-10-07 19:06:00,
2013-10-07 15:21:00,73.0,70.0,29.86,South,169,9.0,-999.0,91,-99.99,,,0.00,121,weatherlink.com 1.10,2013-10-07 19:21:00,
2013-10-07 15:36:00,73.7,70.0,29.86,West,266,10.0,-999.0,89,-99.99,,,0.00,107,weatherlink.com 1.10,2013-10-07 19:36:00,
2013-10-07 15:51:00,74.2,71.0,29.86,SE,142,8.0,-999.0,88,-99.99,,,0.00,165,weatherlink.com 1.10,2013-10-07 19:51:00,
2013-10-07 16:06:00,74.4,70.0,29.86,South,169,8.0,-999.0,87,-99.99,,,0.00,104,weatherlink.com 1.10,2013-10-07 20:06:00,
2013-10-07 16:21:00,74.1,70.0,29.86,SE,129,13.0,-999.0,87,-99.99,,,0.00,139,weatherlink.com 1.10,2013-10-07 20:21:00,
2013-10-07 16:36:00,74.0,70.0,29.86,South,180,3.0,-999.0,88,-99.99,,,0.00,39,weatherlink.com 1.10,2013-10-07 20:36:00,
2013-10-07 16:51:00,73.8,70.0,29.86,SSE,148,7.0,-999.0,88,-99.99,,,0.00,42,weatherlink.com 1.10,2013-10-07 20:51:00,
2013-10-07 17:07:00,73.7,70.0,29.86,South,187,5.0,-999.0,88,-99.99,,,0.00,32,weatherlink.com 1.10,2013-10-07 21:07:00,
2013-10-07 17:22:00,73.6,70.0,29.85,SE,145,8.0,-999.0,88,-99.99,,,0.00,39,weatherlink.com 1.10,2013-10-07 21:22:00,
2013-10-07 17:37:00,73.5,70.0,29.85,South,182,5.0,-999.0,89,-99.99,,,0.00,12,weatherlink.com 1.10,2013-10-07 21:37:00,
2013-10-07 17:52:00,73.2,70.0,29.85,SE,142,7.0,-999.0,89,-99.99,,,0.00,7,weatherlink.com 1.10,2013-10-07 21:52:00,
2013-10-07 18:07:00,72.9,70.0,29.85,South,184,8.0,-999.0,89,-99.99,,,0.00,0,weatherlink.com 1.10,2013-10-07 22:07:00,
2013-10-07 18:22:00,72.7,69.0,29.85,East,101,8.0,-999.0,89,-99.99,,,0.00,0,weatherlink.com 1.10,2013-10-07 22:22:00,
2013-10-07 18:37:00,72.5,69.0,29.85,ESE,109,4.0,-999.0,89,-99.99,,,0.00,0,weatherlink.com 1.10,2013-10-07 22:37:00,
2013-10-07 18:52:00,72.4,69.0,29.86,ESE,123,8.0,-999.0,89,-99.99,,,0.00,0,weatherlink.com 1.10,2013-10-07 22:52:00,
2013-10-07 19:07:00,72.5,69.0,29.86,SSE,156,11.0,-999.0,89,-99.99,,,0.00,0,weatherlink.com 1.10,2013-10-07 23:07:00,
2013-10-07 19:22:00,72.5,69.0,29.85,SSE,168,13.0,-999.0,89,-99.99,,,0.00,0,weatherlink.com 1.10,2013-10-07 23:22:00,
2013-10-07 19:37:00,72.6,69.0,29.86,South,180,7.0,-999.0,89,-99.99,,,0.00,0,weatherlink.com 1.10,2013-10-07 23:37:00,
2013-10-07 19:52:00,72.7,69.0,29.86,SSW,210,6.0,-999.0,89,-99.99,,,0.00,0,weatherlink.com 1.10,2013-10-07 23:52:00,
2013-10-07 20:07:00,72.8,70.0,29.85,North,5,6.0,-999.0,89,-99.99,,,0.00,0,weatherlink.com 1.10,2013-10-08 00:07:00,
2013-10-07 20:22:00,72.7,69.0,29.85,SSW,196,4.0,-999.0,89,-99.99,,,0.00,0,weatherlink.com 1.10,2013-10-08 00:22:00,
2013-10-07 20:37:00,72.5,70.0,29.84,South,169,6.0,-999.0,90,-99.99,,,0.00,0,weatherlink.com 1.10,2013-10-08 00:37:00,
2013-10-07 20:52:00,72.3,69.0,29.83,South,180,4.0,-999.0,90,-99.99,,,0.00,0,weatherlink.com 1.10,2013-10-08 00:52:00,
2013-10-07 21:07:00,72.1,69.0,29.82,SE,140,0.0,-999.0,90,-99.99,,,0.00,0,weatherlink.com 1.10,2013-10-08 01:07:00,
2013-10-07 21:22:00,71.9,69.0,29.82,SSE,150,8.0,-999.0,90,-99.99,,,0.00,0,weatherlink.com 1.10,2013-10-08 01:22:00,
2013-10-07 21:37:00,71.6,69.0,29.82,ESE,117,2.0,-999.0,91,-99.99,,,0.00,0,weatherlink.com 1.10,2013-10-08 01:37:00,
2013-10-07 21:52:00,71.5,69.0,29.83,South,170,1.0,-999.0,91,-99.99,,,0.00,0,weatherlink.com 1.10,2013-10-08 01:52:00,
2013-10-07 22:07:00,71.4,69.0,29.84,South,182,1.0,-999.0,91,-99.99,,,0.00,0,weatherlink.com 1.10,2013-10-08 02:07:00,
2013-10-07 22:22:00,71.1,69.0,29.85,SSE,158,0.0,-999.0,92,-99.99,,,0.00,0,weatherlink.com 1.10,2013-10-08 02:22:00,
2013-10-07 22:37:00,70.7,69.0,29.85,WSW,240,2.0,-999.0,93,-99.99,,,0.00,0,weatherlink.com 1.10,2013-10-08 02:37:00,
2013-10-07 22:52:00,70.3,68.0,29.84,WSW,254,0.0,-999.0,93,-99.99,,,0.00,0,weatherlink.com 1.10,2013-10-08 02:52:00,
2013-10-07 23:07:00,70.0,68.0,29.85,NW,312,0.0,-999.0,93,-99.99,,,0.00,0,weatherlink.com 1.10,2013-10-08 03:07:00,
2013-10-07 23:22:00,69.6,68.0,29.85,West,262,0.0,-999.0,93,-99.99,,,0.00,0,weatherlink.com 1.10,2013-10-08 03:22:00,
2013-10-07 23:37:00,69.3,68.0,29.85,NNW,331,0.0,-999.0,94,-99.99,,,0.00,0,weatherlink.com 1.10,2013-10-08 03:37:00,
2013-10-07 23:52:00,68.1,65.0,29.87,North,351,9.0,-999.0,90,-99.99,,,0.00,0,weatherlink.com 1.10,2013-10-08 03:52:00,